EW4858 Weather Reports


Display with metric or nautical units.
time (UTC)temp
F
wind
direction
speed
MPH
gust
MPH
rain 1hr
in
rain 24hr
in
rain mn
in
humidity
%
barometer
mb
20260510231559 74 348 5.0 11.0 0.00 0.00 0.00 61 1009.6
20260510230058 74 43 4.0 12.0 0.00 0.00 0.00 61 1009.4
20260510224606 75 355 4.0 11.0 0.00 0.00 0.00 60 1009.3
20260510223115 76 5 6.0 11.0 0.00 0.00 0.00 58 1009.1
20260510221558 76 98 6.0 11.0 0.00 0.00 0.00 58 1009.2
20260510220057 76 28 5.0 10.0 0.00 0.00 0.00 58 1009.2
20260510214602 76 5 4.0 10.0 0.00 0.00 0.00 58 1009.2
20260510213104 77 338 5.0 10.0 0.00 0.00 0.00 57 1009.2
20260510211601 77 24 4.0 10.0 0.00 0.00 0.00 56 1009.2
20260510210055 77 59 7.0 12.0 0.00 0.00 0.00 57 1009.3
20260510204559 77 34 4.0 12.0 0.00 0.00 0.00 56 1009.3
20260510203054 77 69 6.0 10.0 0.00 0.00 0.00 57 1009.3
20260510201556 77 47 6.0 10.0 0.00 0.00 0.00 57 1009.4
20260510200054 76 36 5.0 10.0 0.00 0.00 0.00 58 1009.4
20260510194551 77 49 8.0 13.0 0.00 0.00 0.00 56 1009.3
20260510193055 77 42 5.0 11.0 0.00 0.00 0.00 54 1009.1
20260510191550 77 57 5.0 10.0 0.00 0.00 0.00 53 1009.1
20260510190047 77 90 2.0 8.0 0.00 0.00 0.00 51 1009.1
20260510184551 76 42 2.0 8.0 0.00 0.00 0.00 54 1009.1
20260510183043 75 34 6.0 10.0 0.00 0.00 0.00 56 1009.2
20260510181540 74 54 2.0 6.0 0.00 0.00 0.00 58 1009.2
20260510180044 72 239 1.0 5.0 0.00 0.00 0.00 61 1009.2
20260510174532 71 51 1.0 5.0 0.00 0.00 0.00 63 1009.3
20260510173035 69 19 2.0 4.0 0.00 0.00 0.00 67 1009.3
20260510171525 68 115 1.0 7.0 0.00 0.00 0.00 69 1009.4
20260510170022 67 26 1.0 6.0 0.00 0.00 0.00 72 1009.4
20260510164516 65 82 3.0 8.0 0.00 0.00 0.00 73 1009.3
20260510163014 64 69 1.0 4.0 0.00 0.00 0.00 75 1009.3
20260510161515 63 51 2.0 5.0 0.00 0.00 0.00 78 1009.2
20260510160007 62 113 0.0 5.0 0.00 0.00 0.00 81 1009.1
20260510154504 61 47 2.0 4.0 0.00 0.00 0.00 83 1009.1
20260510153005 60 115 1.0 5.0 0.00 0.00 0.00 83 1009.1
20260510151600 60 54 3.0 8.0 0.00 0.00 0.00 85 1009.1
20260510144557 59 254 0.0 4.0 0.00 0.00 0.00 87 1009.0
20260510143057 58 254 1.0 4.0 0.00 0.00 0.00 88 1008.9
20260510141557 58 254 0.0 2.0 0.00 0.00 0.00 89 1008.8
20260510140056 57 254 0.0 0.0 0.00 0.00 0.00 89 1008.7
20260510134557 57 254 0.0 2.0 0.00 0.00 0.00 89 1008.6
20260510133054 57 254 2.0 5.0 0.00 0.00 0.00 89 1008.5
20260510131554 57 253 1.0 5.0 0.00 0.00 0.00 89 1008.4
20260510130052 58 252 2.0 5.0 0.00 0.00 0.00 89 1008.4
20260510124605 58 252 0.0 3.0 0.00 0.00 0.00 89 1008.4
20260510123052 58 252 0.0 0.0 0.00 0.00 0.00 89 1008.4
20260510121551 58 252 0.0 1.0 0.00 0.00 0.00 89 1008.4
20260510120049 57 252 0.0 4.0 0.00 0.00 0.00 89 1008.3
20260510114550 58 252 1.0 4.0 0.00 0.00 0.00 89 1008.2
20260510113049 58 252 0.0 3.0 0.00 0.00 0.00 89 1008.2
20260510111548 58 252 3.0 5.0 0.00 0.00 0.00 89 1008.3
20260510110046 58 248 0.0 5.0 0.00 0.00 0.00 89 1008.3
20260510104553 58 247 1.0 4.0 0.00 0.00 0.00 89 1008.3
20260510103044 58 245 0.0 4.0 0.00 0.00 0.00 88 1008.4
20260510101543 58 232 0.0 0.0 0.00 0.00 0.00 88 1008.4
20260510100041 59 210 0.0 0.0 0.00 0.00 0.00 89 1008.5
20260510094541 59 210 0.0 3.0 0.00 0.00 0.00 88 1008.6
20260510093039 59 189 0.0 2.0 0.00 0.00 0.00 88 1008.5
20260510091539 59 290 0.0 3.0 0.00 0.00 0.00 88 1008.6
20260510090038 59 329 0.0 0.0 0.00 0.00 0.00 88 1008.7
20260510084537 59 254 0.0 0.0 0.00 0.00 0.00 88 1008.8
20260510083041 59 254 0.0 4.0 0.00 0.00 0.00 87 1008.8
20260510081535 59 254 0.0 0.0 0.00 0.00 0.00 87 1008.8
20260510080032 59 254 0.0 0.0 0.00 0.00 0.00 87 1008.9
20260510074531 59 254 0.0 3.0 0.00 0.00 0.00 87 1009.0
20260510073032 59 254 0.0 4.0 0.00 0.00 0.00 87 1009.1
20260510071530 59 273 0.0 0.0 0.00 0.00 0.00 87 1009.2
20260510070032 59 273 0.0 0.0 0.00 0.00 0.00 87 1009.2
20260510064533 60 276 0.0 0.0 0.00 0.00 0.00 87 1009.3
20260510063025 60 276 2.0 4.0 0.00 0.00 0.00 86 1009.4
20260510061525 60 321 0.0 3.0 0.00 0.00 0.00 86 1009.3
20260510060026 60 321 0.0 3.0 0.00 0.00 0.00 86 1009.5
20260510054523 60 355 0.0 3.0 0.00 0.00 0.00 86 1009.5
20260510053026 60 355 0.0 3.0 0.00 0.00 0.00 86 1009.4
20260510051522 60 355 0.0 3.0 0.00 0.00 0.00 85 1009.4
20260510050026 60 355 0.0 4.0 0.00 0.00 0.00 84 1009.4
20260510044520 61 355 1.0 5.0 0.00 0.00 0.00 83 1009.3
20260510043020 61 343 1.0 4.0 0.00 0.00 0.00 82 1009.2
20260510041518 62 19 0.0 3.0 0.00 0.00 0.00 81 1009.0
20260510040018 62 19 0.0 4.0 0.00 0.00 0.00 81 1008.9
20260510034525 63 19 0.0 0.0 0.00 0.00 0.00 80 1008.7
20260510033022 63 19 0.0 0.0 0.00 0.00 0.00 78 1008.5
20260510031519 64 21 0.0 5.0 0.00 0.00 0.00 77 1008.2
20260510030023 64 21 0.0 4.0 0.00 0.00 0.00 76 1008.1
20260510024515 65 5 0.0 4.0 0.00 0.00 0.00 75 1008.1
20260510023015 66 18 2.0 5.0 0.00 0.00 0.00 72 1007.9
20260510021523 67 36 3.0 7.0 0.00 0.00 0.00 70 1007.9
20260510020015 69 28 3.0 7.0 0.00 0.00 0.00 67 1007.7
20260510014514 71 28 4.0 9.0 0.00 0.00 0.00 64 1007.7
20260510013014 72 61 4.0 11.0 0.00 0.00 0.00 62 1007.7
20260510011516 73 49 4.0 11.0 0.00 0.00 0.00 59 1007.5
20260510010013 74 343 4.0 9.0 0.00 0.00 0.00 57 1007.5
20260510004513 75 51 3.0 7.0 0.00 0.00 0.00 56 1007.4
20260510003014 75 46 5.0 10.0 0.00 0.00 0.00 55 1007.4
20260510001512 75 40 2.0 8.0 0.00 0.00 0.00 54 1007.4
20260510000011 75 30 1.0 7.0 0.00 0.00 0.00 54 1007.3
20260509234523 74 45 2.0 8.0 0.00 0.00 0.00 56 1007.5
20260509233011 74 32 4.0 9.0 0.00 0.00 0.00 56 1007.3